CAPE
215 174 65 55 45 0 0 110 343 466 733 831 988 1126 1000 910 968 1032 968 834 947 1046 1038 1011 1101 998 946 864 735 1101 1040 1100 1250 1280 1246 1294 1541 1944 2185 1879 2118 2478 2436
243 255 156 41 59 104 0 0 101 363 432 705 858 1095 1156 1062 1049 1188 1218 1073 842 884 1048 1068 1069 978 1051 1093 1296 1344 1293 1388 1419 1417 1625 1709 1758 1784 1852 2247 2292 2419 2029
242 238 232 132 4 60 108 81 90 175 222 343 641 948 1152 1193 1111 1131 1252 1204 1071 986 1023 1063 1176 1228 1230 1322 1407 1458 1570 1675 1827 1761 1774 1698 1619 1761 2117 2290 2381 2498 1670
212 253 265 229 110 0 0 39 0 57 166 242 371 651 978 1151 1168 1191 1175 1161 1154 1090 1130 1214 1335 1258 1379 1472 1343 1549 1597 1748 1784 1694 1660 1806 1827 1910 1879 1967 2511 2394 1775
295 260 225 229 156 84 0 0 8 17 21 91 206 597 907 1195 1149 1224 1236 1252 1237 1225 1263 1210 1242 1312 1308 1346 1558 1844 1613 1629 1701 1757 2048 1878 2161 2218 2440 2211 1898 1710 1911
275 275 302 260 247 170 126 36 0 0 36 0 36 323 781 950 1126 1204 1207 1321 1359 1413 1422 1368 1415 1336 1374 1384 1341 1358 1497 1982 2102 2092 2347 2086 2387 2025 2138 1897 1687 1862 1965
278 307 301 300 313 306 261 165 79 67 37 9 5 28 255 657 732 1134 1251 1337 1383 1386 1448 1500 1305 1230 1102 1414 1166 1160 1206 1352 1444 2185 2223 2308 2306 2416 2101 2069 1883 2041 2033
225 386 322 290 355 401 374 321 276 247 218 175 109 69 62 140 250 618 921 831 1247 1273 1250 1220 1273 1345 1232 1273 1391 1488 1528 1416 1333 1357 1379 1750 2206 2241 2054 1977 1749 1667 1648
199 363 517 466 436 462 510 559 448 495 522 440 352 298 255 219 192 154 443 538 794 1095 1156 1216 1213 1211 1025 1015 1336 1545 1677 1699 1379 1442 1438 1515 1565 1487 1475 1532 1422 1383 1805
296 184 689 744 765 806 659 664 597 601 633 732 751 732 705 654 618 544 425 290 330 497 877 1009 849 972 961 986 1038 1473 1531 1606 1628 1656 1194 1210 1296 1321 1303 1241 1259 1453 1974
82 197 208 706 1079 1421 1157 1133 929 873 875 1111 1152 1149 1002 978 957 929 801 625 415 357 449 575 1026 798 894 966 987 1250 1246 1381 1327 1268 1582 1454 1313 1271 1221 1245 1366 1323 1789
48 65 152 189 307 705 1114 1226 996 1290 1150 1043 1069 1167 1220 1199 1142 1090 1066 941 692 578 562 671 713 592 722 757 720 699 738 858 964 1345 1405 1252 1267 1195 1458 1559 1488 1017 1404
0 38 65 87 128 165 285 328 767 1168 1391 1341 1295 1170 1179 1318 1319 1201 1117 1067 962 756 644 504 402 508 657 693 680 666 746 754 762 772 856 1071 1170 1290 1412 1147 1195 1398 1327
0 2 0 0 85 123 78 113 233 1183 1325 1449 1515 1400 1352 1355 1317 1254 1174 1140 1035 979 900 823 748 804 898 901 960 1116 1215 1230 1128 952 949 1048 1202 1199 1014 927 1125 1551 1393
0 0 0 0 0 0 5 48 123 491 1385 1421 1495 1478 1479 1389 1408 1343 1223 1228 1174 1075 940 935 930 897 940 988 1091 1273 1426 1493 1484 1462 1450 1475 1535 1501 1225 1188 1191 1242 1644
0 0 0 1 0 4 0 27 10 131 702 1576 1461 1366 1533 1497 1443 1510 1451 1297 1370 1196 1145 1227 1189 1087 1047 1026 1869 1276 1037 1144 1294 1326 1420 1600 1703 1766 1731 1373 1179 1386 1842
0 0 0 0 0 0 0 0 9 0 197 866 1863 1836 1681 1587 1609 1557 1599 1442 1514 1388 1444 1542 1544 1467 1404 1234 1874 1793 1336 1008 975 1087 1270 1585 1746 1858 1896 1599 1374 1476 1791
0 0 0 0 0 0 0 0 0 0 10 441 861 1555 2043 1972 1902 1837 1657 1576 1549 1444 1552 1606 1648 1638 1648 1658 1964 1926 1463 1497 1388 1440 1732 1803 1862 1810 1774 1731 1717 1663 1607
0 0 0 0 0 0 0 0 0 0 0 151 463 1182 1964 2069 2185 2057 2031 2007 1821 1783 1787 1767 1704 1780 1736 1712 2012 1880 1601 1621 1835 2100 2124 2117 1959 1705 1837 1719 1715 1312 1363
0 0 0 0 0 0 0 0 0 0 0 30 144 676 1347 1844 2107 2199 2159 2136 2024 2023 2038 2043 1939 1946 1906 1856 1918 2200 1879 1949 2163 2186 2006 1906 1517 1405 1395 1431 1515 1309 1225
0 0 0 0 0 0 0 0 0 0 1 114 163 393 957 1361 2052 1968 2167 2214 2258 2181 2138 2062 2065 2013 1863 1718 1516 1765 1728 1914 2040 2056 1665 1565 1468 1316 1339 938 605 382 211
0 0 0 0 0 0 0 0 0 0 11 104 89 396 546 982 1262 1453 1548 1649 1765 1601 1729 1771 1733 1668 1780 1751 1664 1626 1373 1653 1424 1288 1055 1116 1227 858 658 497 446 308 96
0 0 0 0 0 0 0 0 0 0 0 31 42 113 243 432 666 830 1550 1506 1450 1251 1135 1237 1362 1533 1779 1715 1284 1084 1228 1464 1276 881 709 569 415 246 170 234 241 70 32
6 4 1 0 0 0 0 0 0 0 0 5 59 485 618 571 583 536 564 1065 1156 1236 926 1075 1376 1417 1495 1464 1016 943 924 690 742 536 265 153 46 29 13 34 85 240 247
10 17 10 13 28 30 19 0 0 0 0 4 260 256 476 498 507 542 428 646 973 949 911 963 1113 1224 1109 1051 918 612 318 212 122 55 12 9 12 4 38 26 85 223 184
7 12 24 57 47 60 20 12 11 16 53 48 113 269 420 515 455 414 666 802 720 775 854 824 571 552 552 398 369 304 238 200 101 39 23 10 34 120 147 144 140 153 48
CIN
0 -2 -241 -211 -183 0 0 -288 -63 -100 -55 -37 -145 -120 -35 -35 -84 -37 -33 -85 -57 -84 -40 -49 -43 -55 -55 -73 -81 -119 -79 -61 -66 -120 -91 -108 -110 -101 -157 -215 -114 -58 -66
-1 0 -2 -195 -245 -295 0 0 -127 -235 -109 -61 -39 -131 -124 -124 -54 -32 -26 -91 -109 -97 -88 -46 -43 -37 -122 -112 -47 -35 -32 -32 -42 -81 -87 -99 -127 -201 -187 -178 -120 -78 -178
-2 -1 -3 -1 -18 -244 -237 -230 -198 -135 -135 -118 -106 -47 -126 -129 -131 -59 -40 -27 -115 -114 -104 -90 -93 -24 -82 -97 -73 -46 -29 -19 -25 -55 -112 -121 -180 -117 -148 -156 -150 -143 -187
-17 -4 0 0 -1 0 0 -275 0 -152 -171 -134 -255 -187 -149 -142 -137 -133 -50 -83 -40 -121 -113 -100 -86 -91 -88 -85 -72 -86 -81 -66 -67 -88 -123 -88 -104 -168 -112 -138 -105 -110 -208
-37 -26 -5 -4 -2 -11 0 0 -68 -131 -241 -282 -301 -224 -162 -130 -132 -141 -134 -125 -117 -120 -124 -123 -64 -71 -35 -49 -66 -72 -85 -37 -43 -81 -70 -94 -99 -96 -56 -72 -111 -144 -184
-55 -48 -260 -251 -7 -2 -1 -32 0 0 -359 0 -338 -254 -196 -141 -134 -108 -70 -120 -117 -102 -105 -126 -121 -49 -45 -50 -52 -63 -51 -46 -34 -14 -22 -62 -58 -92 -66 -85 -93 -79 -118
-137 -104 -104 -228 -37 -9 -2 -5 -17 -35 -57 -293 -29 -369 -282 -218 -176 -129 -106 -122 -115 -116 -114 -110 -92 -96 -73 -107 -89 -82 -86 -70 -72 -38 -23 -25 -34 -27 -46 -56 -58 -41 -55
-208 -188 -196 -137 -221 -249 -166 -38 -6 -7 -16 -25 -43 -75 -227 -347 -277 -187 -141 -188 -122 -136 -147 -156 -143 -124 -152 -132 -108 -96 -101 -125 -73 -61 -70 -103 -55 -47 -45 -32 -63 -86 -115
-137 -113 -100 -146 -165 -171 -203 -193 -30 -12 -11 -28 -28 -40 -67 -110 -132 -242 -194 -201 -160 -152 -160 -160 -159 -156 -108 -86 -107 -83 -78 -101 -124 -90 -81 -75 -72 -72 -54 -59 -85 -97 -94
-47 -104 -36 -54 -70 -98 -122 -107 -101 -66 -67 -33 -43 -48 -60 -83 -85 -108 -103 -121 -204 -203 -176 -181 -175 -165 -155 -110 -130 -88 -68 -121 -104 -112 -172 -120 -96 -109 -116 -112 -79 -95 -38
-55 -65 -89 -25 -4 -16 -39 -34 -60 -67 -73 -51 -59 -61 -77 -69 -82 -75 -75 -94 -127 -224 -230 -230 -189 -234 -182 -133 -121 -99 -130 -142 -119 -120 -105 -136 -158 -96 -103 -91 -70 -91 -54
-60 -59 -52 -63 -78 -44 -7 -12 -41 -22 -51 -101 -106 -99 -121 -101 -92 -99 -69 -75 -104 -153 -203 -214 -234 -251 -221 -194 -162 -155 -169 -152 -107 -70 -73 -144 -155 -188 -157 -141 -128 -187 -171
-1 -71 -66 -64 -97 -107 -89 -113 -79 -49 -32 -81 -96 -136 -147 -96 -81 -111 -114 -87 -68 -74 -159 -202 -237 -237 -188 -168 -176 -164 -110 -101 -125 -134 -157 -173 -176 -168 -140 -184 -184 -141 -180
0 -31 0 0 -57 -66 -83 -65 -166 -36 -48 -61 -82 -119 -159 -124 -131 -114 -61 -75 -84 -71 -70 -80 -131 -160 -142 -142 -111 -75 -61 -72 -82 -101 -117 -105 -87 -81 -94 -82 -79 -104 -123
0 0 0 0 0 0 -32 -91 -183 -191 -25 -48 -86 -86 -151 -142 -126 -83 -74 -54 -59 -91 -37 -36 -89 -105 -132 -131 -108 -87 -74 -55 -54 -61 -66 -68 -63 -62 -82 -66 -65 -130 -80
0 0 0 0 0 -102 0 -24 -91 -135 -98 -49 -59 -85 -131 -146 -119 -88 -78 -82 -63 -76 -41 -38 -80 -113 -117 -116 -29 -85 -129 -127 -114 -97 -78 -62 -54 -44 -42 -49 -44 -76 -37
0 0 0 0 0 0 -1 -2 -90 0 -134 -107 -27 -61 -111 -163 -96 -73 -35 -24 -35 -31 -42 -45 -49 -67 -99 -100 -35 -50 -117 -186 -153 -99 -86 -57 -44 -26 -8 -26 -43 -25 -30
0 0 0 0 0 0 0 0 0 0 -184 -117 -146 -96 -87 -82 -48 -37 -7 -2 -3 -26 -44 -37 -52 -34 -31 -63 -37 -42 -91 -89 -83 -69 -54 -44 -24 -18 -18 -34 -37 -45 -75
0 0 0 0 0 0 0 0 0 0 0 -205 -135 -192 -71 -35 -19 -7 0 0 0 -3 -6 -20 -35 -46 -26 -46 -28 -31 -67 -60 -43 -18 -18 -19 -21 -1 -5 -34 -56 -107 -106
0 0 0 0 0 0 0 0 0 0 0 -328 -216 -239 -93 -42 -6 -7 -11 -1 0 -1 -7 -6 -10 -10 -9 -10 -30 -24 -32 -28 -12 -13 -29 -42 -67 -75 -79 -72 -58 -70 -92
0 0 0 0 0 0 0 0 0 -6 0 -213 -252 -235 -100 -54 -2 -4 -5 -4 -1 0 -3 -9 -8 -8 -7 -9 -19 -12 -29 -30 -18 -25 -45 -56 -55 -49 -41 -63 -74 -45 -39
0 0 0 0 0 0 0 0 0 0 -226 -156 -193 -185 -148 -74 -49 -45 -23 -24 -14 -17 -11 -4 -8 -24 -3 -2 -5 -8 -37 -28 -26 -48 -49 -40 -22 -41 -34 -57 -58 -58 -72
0 0 0 0 0 0 0 0 0 0 0 -212 -260 -279 -258 -177 -154 -121 -23 -4 -8 -22 -38 -31 -20 -6 0 0 -13 -37 -28 -11 -25 -71 -83 -84 -93 -115 -128 -103 -63 -46 -138
-1 0 -1 0 0 0 0 0 0 0 0 -295 -290 -139 -114 -169 -161 -155 -131 -21 -8 -4 -39 -16 -1 0 0 0 -2 -7 -9 -35 -36 -46 -40 -61 -41 -40 -190 -129 -115 -34 -57
-7 -1 0 0 0 0 -1 0 0 0 0 -316 -117 -142 -49 -86 -86 -112 -133 -77 -23 -17 -13 -4 0 0 0 0 0 -2 -6 -11 -44 -83 -87 -21 -22 -180 -110 -72 -26 -15 0
-9 -1 0 0 0 0 0 0 0 -85 -133 -199 -167 -89 -24 -11 -51 -103 -38 -7 -12 -8 -2 -6 -2 0 0 -1 -2 -3 0 -3 -14 -47 -13 -112 -25 0 -1 -7 -7 -3 -1
Wind_Speed
16 17 nan nan nan nan nan 12 13 13 11 8 5 3 2 2 5 4 4 4 6 6 7 9 12 11 11 12 12 13 14 11 10 10 7 7 7 8 6 3 3 3 4
15 16 17 nan nan 15 nan nan 15 13 15 10 7 5 5 4 4 4 4 5 4 5 5 4 7 10 10 9 10 10 11 10 10 9 8 7 6 7 5 3 2 2 1
26 20 20 21 nan nan 16 nan nan 15 14 13 11 9 8 7 5 3 3 2 3 3 2 2 3 5 9 12 10 11 10 10 9 10 11 12 9 9 9 6 6 5 5
21 24 23 22 21 nan nan nan nan nan 15 15 14 13 11 10 9 6 4 4 4 3 2 0 0 3 3 8 11 11 12 12 11 12 12 12 11 11 10 9 11 10 8
21 19 19 23 25 nan nan nan nan nan nan nan 19 18 17 15 15 12 10 8 8 7 4 3 3 3 5 5 10 13 14 16 16 14 13 13 14 14 12 14 13 12 12
24 19 21 24 29 28 29 nan nan nan nan nan nan 21 21 19 18 15 16 13 12 11 10 9 7 6 5 7 7 7 12 16 16 18 18 15 16 17 16 14 16 16 18
37 32 30 27 26 26 31 34 nan nan nan nan nan nan 21 19 19 16 16 17 17 15 14 15 12 10 11 8 10 10 8 9 10 17 16 17 18 19 17 16 18 19 17
53 44 34 28 25 27 29 32 35 36 33 31 29 nan nan 21 20 17 17 17 17 17 18 17 14 12 14 15 11 9 10 12 13 17 14 17 19 20 19 18 19 18 16
63 60 54 36 31 30 28 30 34 40 38 35 34 33 29 24 24 20 24 19 16 15 18 18 16 15 15 19 15 12 10 10 15 14 13 14 15 19 24 25 18 16 15
44 55 61 57 52 40 37 32 36 35 36 41 36 34 33 30 30 27 28 24 19 18 18 17 15 13 21 24 18 16 11 12 17 15 15 13 12 16 25 26 24 19 16
nan 44 52 63 58 50 46 39 37 35 34 33 33 35 36 35 34 34 33 27 23 23 19 18 19 19 18 25 22 18 14 18 18 18 14 13 14 17 23 27 26 25 22
nan nan 45 57 55 51 48 44 37 32 31 28 29 33 37 37 34 36 35 29 27 27 23 24 22 27 27 24 27 19 16 23 21 19 18 16 17 18 21 23 24 23 23
nan nan nan nan 54 52 49 42 40 35 32 29 28 28 31 37 37 33 35 31 27 29 29 29 29 32 30 30 25 26 26 26 24 22 20 19 22 23 22 25 24 21 21
nan nan nan nan nan 57 nan 49 48 42 33 27 28 24 27 32 35 37 39 40 31 34 28 35 33 37 37 34 36 33 31 33 31 27 25 24 28 29 26 27 26 27 24
nan nan nan nan nan nan nan nan 53 49 38 32 28 29 28 28 29 35 37 40 42 40 42 35 32 33 33 34 35 34 36 37 34 33 30 30 32 32 28 32 29 31 28
nan nan nan nan nan nan nan nan nan 34 38 36 33 33 29 21 31 30 28 35 41 50 42 33 32 32 32 33 30 31 33 33 33 34 33 32 32 32 31 33 34 34 32
nan nan nan nan nan nan nan nan nan nan 42 46 39 31 32 29 30 30 30 31 32 43 31 31 29 29 31 31 32 31 30 35 38 36 34 34 34 34 35 34 35 39 38
nan nan nan nan nan nan nan nan nan nan nan 56 53 43 38 30 32 36 42 52 46 36 31 29 28 27 29 30 33 32 32 36 38 40 39 38 37 36 35 34 34 35 41
nan nan nan nan nan nan nan nan nan nan nan 45 58 64 52 57 48 50 49 44 42 39 36 31 31 32 31 28 28 28 31 35 37 41 41 41 40 41 39 41 41 42 48
nan nan nan nan nan nan nan nan nan nan nan nan 49 51 62 65 57 54 50 48 46 44 41 38 38 38 37 36 34 34 30 31 34 35 38 40 42 44 44 47 50 52 52
nan nan nan nan nan nan nan nan nan nan nan 48 51 59 60 59 56 52 56 55 51 49 48 46 45 42 44 43 43 39 38 37 41 41 41 42 43 43 44 47 49 54 50
nan nan nan nan nan nan nan nan nan nan nan 51 nan 57 55 57 60 61 61 66 67 68 66 60 59 58 60 58 55 52 49 47 52 51 47 45 42 41 42 42 45 46 nan
nan nan nan nan nan nan nan nan nan nan nan nan nan 52 57 58 67 73 77 78 77 76 75 75 74 72 69 67 64 66 62 62 61 56 52 49 47 45 47 46 46 nan nan
nan nan nan nan nan nan nan nan nan nan nan nan nan 67 66 66 70 76 76 72 72 78 82 83 82 80 76 74 75 78 75 69 58 59 58 67 nan nan nan nan nan 54 57
nan nan nan nan nan nan nan nan nan nan nan nan 69 69 73 72 63 60 64 66 68 72 75 73 73 80 88 90 89 92 88 88 84 nan nan nan nan nan nan nan nan 65 64
nan nan nan nan nan nan nan nan nan nan nan nan 70 73 65 63 62 60 63 66 69 70 69 70 72 79 79 78 81 88 90 93 91 nan nan nan nan 67 74 70 63 69 nan
Wind_Direction
211 216 nan nan nan nan nan 217 218 219 226 216 216 182 196 138 153 158 134 108 100 134 159 164 162 169 173 176 177 179 186 196 189 184 179 174 173 178 174 158 102 69 54
214 222 219 nan nan 228 nan nan 234 231 230 226 229 240 214 206 204 150 125 120 85 85 107 162 161 185 174 182 191 186 192 202 207 192 202 207 207 202 210 198 251 304 20
222 218 211 220 nan nan 224 nan nan 244 247 237 236 244 243 244 232 179 160 162 119 91 57 68 120 222 200 198 201 204 207 213 221 217 211 229 230 234 234 249 259 277 294
230 225 221 215 217 nan nan nan nan nan 238 249 249 243 244 252 263 253 236 230 238 191 159 336 274 269 245 226 213 213 215 220 226 226 230 237 248 247 261 260 256 277 284
236 236 232 226 224 nan nan nan nan nan nan nan 245 251 249 250 250 258 258 256 259 258 244 242 253 292 308 277 242 232 232 228 232 234 239 250 254 255 251 267 275 275 286
243 244 237 236 233 234 234 nan nan nan nan nan nan 248 254 247 259 271 264 261 264 264 257 257 261 283 296 304 289 269 255 243 238 242 241 244 248 263 269 268 281 285 286
228 234 236 236 237 237 237 241 nan nan nan nan nan nan 245 248 265 275 279 257 260 261 261 259 262 270 294 295 296 295 283 287 278 254 245 253 250 265 270 268 281 294 293
223 224 237 241 241 243 240 243 245 245 246 247 249 nan nan 246 260 272 277 263 257 260 263 263 261 265 284 294 297 290 281 277 274 274 281 257 263 268 282 275 273 281 284
221 225 226 238 244 241 243 244 241 242 245 247 247 253 259 253 262 265 263 259 260 261 260 265 268 264 275 293 287 290 280 275 282 301 305 301 297 284 278 274 274 276 265
227 224 227 227 231 245 245 240 243 243 243 244 246 251 257 256 262 268 269 257 259 256 262 267 281 274 277 283 277 275 281 275 281 286 291 297 307 294 296 286 274 281 276
nan 230 229 225 228 227 230 235 236 242 240 242 244 248 250 252 256 269 274 263 260 258 258 262 263 284 277 278 288 272 284 276 283 284 293 290 285 284 285 292 289 281 282
nan nan 221 210 216 220 220 224 222 231 236 237 240 241 247 249 255 263 274 283 269 261 260 258 257 276 284 282 276 282 279 270 273 277 275 281 279 280 282 293 299 293 284
nan nan nan nan 215 221 220 220 223 231 234 233 240 242 244 247 247 261 269 274 275 260 255 258 259 268 274 274 283 281 281 272 271 272 272 274 275 278 282 285 290 291 284
nan nan nan nan nan 220 nan 225 226 225 229 236 240 239 244 245 247 249 253 254 260 258 251 254 256 259 266 268 269 274 271 275 277 275 272 268 267 272 275 278 277 277 273
nan nan nan nan nan nan nan nan 223 228 225 227 233 237 243 247 248 252 255 258 260 260 256 252 262 268 269 271 273 275 276 275 278 277 273 270 272 272 274 274 275 274 277
nan nan nan nan nan nan nan nan nan 228 230 219 218 235 232 235 258 262 264 264 268 268 263 262 262 268 271 270 270 271 275 280 280 279 280 278 278 280 277 276 276 278 276
nan nan nan nan nan nan nan nan nan nan 229 224 221 232 226 227 254 256 263 261 263 270 269 270 267 268 271 272 273 274 279 281 281 283 283 281 282 283 284 283 282 280 279
nan nan nan nan nan nan nan nan nan nan nan 218 224 230 232 230 240 245 255 259 253 254 266 271 273 271 266 267 270 275 276 277 283 285 284 283 282 283 284 286 285 288 284
nan nan nan nan nan nan nan nan nan nan nan 221 223 231 239 232 236 249 259 255 260 263 266 267 269 272 270 265 267 271 275 278 280 281 283 283 283 282 281 281 282 283 279
nan nan nan nan nan nan nan nan nan nan nan nan 241 231 242 250 244 244 248 252 254 257 260 263 265 268 273 278 278 281 278 281 283 282 283 284 284 285 286 284 281 280 277
nan nan nan nan nan nan nan nan nan nan nan 241 229 227 237 248 252 250 249 253 255 258 259 260 263 267 272 273 274 275 278 280 281 283 287 284 286 287 280 278 277 285 291
nan nan nan nan nan nan nan nan nan nan nan 233 nan 219 233 240 247 251 253 253 253 254 255 258 258 258 259 263 266 271 274 274 276 280 280 282 284 285 286 286 289 294 nan
nan nan nan nan nan nan nan nan nan nan nan nan nan 230 245 248 254 253 252 254 254 255 257 258 260 260 259 263 265 266 263 263 266 269 276 278 280 282 285 288 289 nan nan
nan nan nan nan nan nan nan nan nan nan nan nan nan 238 244 249 246 249 251 252 253 255 257 258 259 260 262 263 264 265 266 267 270 273 275 283 nan nan nan nan nan 280 280
nan nan nan nan nan nan nan nan nan nan nan nan 232 240 244 247 247 245 246 250 254 256 258 262 263 261 259 260 260 261 259 260 264 nan nan nan nan nan nan nan nan 275 272
nan nan nan nan nan nan nan nan nan nan nan nan 234 232 239 242 247 256 259 254 255 256 257 259 254 260 264 276 268 254 255 256 260 nan nan nan nan 260 264 270 268 269 nan